Redmond, OR

9:47 PM PST on January 19, 2018 (GMT -0800)
Roberts Field Airport

Weather History for KRDM - March, 2012

Change the Weather History Date:

Wednesday, March 14, 2012

  Actual Average Record
Temperature  
Mean Temperature 43 °F 40 °F  
Max Temperature 52 °F 54 °F 72 °F (1994)
Min Temperature 33 °F 26 °F 12 °F (2005)
Degree Days  
Heating Degree Days 22 25  
Month to date heating degree days 367 371  
Since 1 July heating degree days 4892 5044  
Cooling Degree Days 0 0  
Month to date cooling degree days 0 0  
Year to date cooling degree days 0 0  
Moisture  
Dew Point 31 °F    
Average Humidity 64    
Maximum Humidity 82    
Minimum Humidity 46    
Precipitation  
Precipitation T in 0.02 in 0.62 in (1974)
Month to date precipitation 0.19 0.28  
Year to date precipitation 2.40 1.90  
Sea Level Pressure  
Sea Level Pressure 29.83 in    
Wind  
Wind Speed 12 mph (South)    
Max Wind Speed 26 mph    
Max Gust Speed 35 mph    
Visibility 10 miles    
Events      
T = Trace of Precipitation, MM = Missing Value Source: NWS Daily Summary

Daily Weather History Graph

Daily Weather History Graph

Search for Another Location

Airport or City:

Trip Planner

Search our weather history database for the weather conditions in past years. The results will help you decide how hot, cold, wet, or windy it might be!

Date:

Astronomy

Mar. 14, 2012 Rise Set
Actual Time 7:17 AM PDT 7:10 PM PDT
Civil Twilight 6:48 AM PDT 7:39 PM PDT
Nautical Twilight 6:15 AM PDT 8:12 PM PDT
Astronomical Twilight 5:40 AM PDT 8:47 PM PDT
Moon 2:05 AM PDT (3/14) 11:19 AM PDT (3/14)
Length of Visible Light 12h 50m
Length of Day
11h 52m
Waning Gibbous, 53% of the Moon is Illuminated
Mar 14
Waning Gibbous
Mar 14
Last Quarter
Mar 22
New
Mar 30
First Quarter
Apr 6
Full

Hourly Weather History & Observations

Time (PDT) Temp. Windchill Dew Point Humidity Pressure Visibility Wind Dir Wind Speed Gust Speed Precip Events Conditions
12:56 AM 33.1 °F 30.0 °F 27.0 °F 78% 29.83 in 10.0 mi SW 3.5 mph - N/A   Overcast
1:56 AM 33.1 °F 25.5 °F 27.0 °F 78% 29.83 in 10.0 mi SSE 9.2 mph - N/A   Overcast
2:56 AM 33.1 °F - 28.0 °F 82% 29.84 in 10.0 mi Calm Calm - N/A   Overcast
3:56 AM 33.1 °F - 28.0 °F 82% 29.83 in 10.0 mi Calm Calm - N/A   Overcast
4:56 AM 34.0 °F 26.6 °F 28.0 °F 79% 29.83 in 10.0 mi SSE 9.2 mph - N/A   Overcast
5:56 AM 34.0 °F 27.2 °F 28.0 °F 79% 29.85 in 10.0 mi SSE 8.1 mph - N/A   Overcast
6:56 AM 34.0 °F 29.8 °F 28.0 °F 79% 29.84 in 10.0 mi SSE 4.6 mph - N/A   Scattered Clouds
7:56 AM 35.1 °F 27.4 °F 27.0 °F 72% 29.83 in 10.0 mi SSE 10.4 mph - N/A   Scattered Clouds
8:56 AM 39.0 °F 31.4 °F 27.0 °F 62% 29.83 in 10.0 mi South 12.7 mph 18.4 mph N/A   Partly Cloudy
9:56 AM 42.1 °F 34.9 °F 27.0 °F 55% 29.83 in 10.0 mi SSE 13.8 mph 19.6 mph N/A   Clear
10:56 AM 46.0 °F 40.2 °F 28.0 °F 50% 29.82 in 10.0 mi South 12.7 mph 28.8 mph N/A   Overcast
11:56 AM 48.0 °F - 28.9 °F 48% 29.82 in 10.0 mi SSW 15.0 mph 27.6 mph N/A   Scattered Clouds
12:56 PM 48.0 °F - 30.9 °F 52% 29.83 in 10.0 mi SW 23.0 mph 29.9 mph N/A   Overcast
1:56 PM 50.0 °F - 32.0 °F 50% 29.83 in 10.0 mi SW 21.9 mph 31.1 mph 0.00 in   Overcast
2:56 PM 50.0 °F - 33.1 °F 52% 29.84 in 10.0 mi SSW 17.3 mph 34.5 mph N/A   Overcast
3:56 PM 50.0 °F - 34.0 °F 54% 29.83 in 10.0 mi South 16.1 mph 26.5 mph N/A   Overcast
5:56 PM 50.0 °F - 34.0 °F 54% 29.84 in 10.0 mi South 15.0 mph 26.5 mph N/A   Overcast
6:56 PM 48.2 °F - 33.8 °F 58% 29.83 in 10.0 mi SSW 16.1 mph 25.3 mph N/A   Scattered Clouds
7:56 PM 46.9 °F - 34.0 °F 61% 29.86 in 10.0 mi South 10.4 mph - N/A   Overcast
8:56 PM 46.9 °F - 35.1 °F 63% 29.86 in 10.0 mi SSW 12.7 mph 21.9 mph N/A   Mostly Cloudy
9:56 PM 46.0 °F 43.1 °F 35.1 °F 66% 29.85 in 10.0 mi South 5.8 mph - N/A   Scattered Clouds
10:56 PM 46.9 °F - 35.1 °F 63% 29.83 in 10.0 mi South 5.8 mph - N/A   Mostly Cloudy
11:56 PM 46.9 °F - 36.0 °F 66% 29.82 in 10.0 mi South 11.5 mph - 0.00 in   Overcast